Location: LDNL
(36.4545°S, 141.6685°E)
Time: 18:02:19
(UTC+10:00)

Tiros 1 despin weight - Pass Details

Date: 29 January 2022
Orbit: 592 x 639 km, 48.2° (Epoch: 28 May)

Event Time Altitude Azimuth Distance (km) Brightness Sun altitude
Exits shadow 05:01:40 38° 287° (WNW) 963 ? -18.6°
Maximum altitude 05:03:21 71° 214° (SSW) 664 ? -18.4°
Drops below altitude 10° 05:07:56 10° 129° (SE) 1,989 ? -17.7°
Sets 05:10:14 0° 126° (SE) 2,890 ? -17.3°
